Flag for Canada Weather past 2 weeks in Kuujjuaq, Quebec, Canada

Now
48 °F

Light rain. Overcast.


Feels Like: 42 °F
Forecast: 47 / 55 °F
Wind: 16 mph from Southwest

Location: Kuujjuaq

Current Time: Aug 31, 2014 at 5:09:53 AM

Latest Report: Aug 31, 2014 at 4:00 AM


Visibility: 12 mi

Pressure: 29.52 "Hg

Humidity: 82%

Dew point: 43 °F

Location of KuujjuaqLocation

Historic Weather in Kuujjuaq — Graph

°F

Kuujjuaq temperature yesterday

Maximum temperature yesterday: 59 °F (at 12:00 AM)
Minimum temperature yesterday: 48 °F (at 11:00 PM)
Average temperature yesterday: 53 °F

Past Weeks' High & Low Weather Summary

 TemperatureHumidityPressure
High86 °F (Aug 23, 12:00 PM)100% (Aug 18, 1:49 AM)30.36 "Hg (Aug 18, 1:49 AM)
Low36 °F (Aug 27, 2:00 AM)31% (Aug 23, 1:00 PM)29.46 "Hg (Aug 30, 12:00 PM)
Average56 °F78%29.96 "Hg
* Reported Aug 16 4:00 AM — Aug 31 4:00 AM, Kuujjuaq, Weather by CustomWeather, © 2014

Note: Actual official high and low records may vary slightly from our data, if they occured in-between our weather recording intervals... More about our weather records

Advertising

Kuujjuaq weather history for previous 24 hours

 ConditionsComfort  
Time TempWeatherWind HumidityBarometerVisibility
4:00 AM
Aug 31
48 °FLight rain. Overcast.16 mph82%29.52 "Hg12 mi
3:00 AM48 °FOvercast.13 mph82%29.52 "Hg15 mi
2:00 AM46 °FOvercast.13 mph87%29.52 "Hg15 mi
1:19 AM46 °FMostly cloudy.10 mph87%29.53 "Hg15 mi
12:00 AM46 °FOvercast.13 mph93%29.53 "Hg15 mi
11:00 PM
Aug 30
48 °FDrizzle. Overcast.10 mph87%29.54 "Hg15 mi
10:00 PM50 °FOvercast.14 mph76%29.54 "Hg15 mi
9:00 PM50 °FPartly cloudy.10 mph76%29.54 "Hg15 mi
8:00 PM50 °FBroken clouds.13 mph76%29.54 "Hg15 mi
7:00 PM50 °FBroken clouds.6 mph76%29.53 "Hg15 mi
6:00 PM52 °FScattered showers. Partly sunny.14 mph62%29.53 "Hg15 mi
5:00 PM55 °FSprinkles. Partly sunny.10 mph59%29.51 "Hg15 mi
4:00 PM54 °FPartly sunny.12 mph67%29.50 "Hg15 mi
3:00 PM54 °FBroken clouds.15 mph67%29.49 "Hg15 mi
2:00 PM54 °FScattered showers. Partly sunny.12 mph88%29.48 "Hg15 mi
1:00 PM54 °FLight rain. More clouds than sun.9 mph82%29.46 "Hg15 mi
12:00 PM54 °FLight rain. Low clouds.9 mph88%29.46 "Hg12 mi
11:00 AM54 °FLight rain. More clouds than sun.9 mph100%29.46 "Hg8 mi
10:00 AM54 °FLight rain. More clouds than sun.6 mph100%29.48 "Hg15 mi
9:00 AM54 °FLight rain. More clouds than sun.7 mph94%29.50 "Hg15 mi
8:00 AM52 °FLight rain. More clouds than sun.6 mph100%29.52 "Hg15 mi
7:00 AM52 °FLight rain. More clouds than sun.5 mph94%29.53 "Hg15 mi
6:00 AM52 °FMostly cloudy.5 mph94%29.54 "Hg15 mi
5:00 AM54 °FPartly cloudy.No wind88%29.55 "Hg15 mi
Weather by CustomWeather, © 2014

See weather overviewHow to use our weather pages